#timestamp,LO_Frequency,Hit,StdDev 
1457020815.8,286046997.3,N
1457020835.7,286046995.5,N
1457020855.5,286047001.1,N
1457020875.3,286046999.2,N
1457020895.2,286046999.5,N
1457020915.9,286046998.6,N
1457020935.7,286047002.4,N
1457020955.6,286047003.2,N
1457020975.4,286047003.2,N
1457020995.2,286047005.9,N
1457021015.1,286047003.9,N
1457021016.0,286047003.9,N
1457021035.8,286046999.9,N
1457021055.6,286046999.0,N
1457021075.5,286046996.1,N
1457021095.3,286046993.4,N
1457021115.1,286046997.2,N
1457021135.9,286046997.5,N
1457021155.7,286046996.5,N
1457021175.5,286046997.8,N
1457021195.3,286046997.0,N
1457021215.2,286046998.3,N
1457021235.0,286046997.3,N
1457021235.9,286046997.3,N
1457021255.7,286046997.2,N
1457021275.6,286046995.4,N
1457021295.4,286046997.0,N
1457021315.2,286046995.9,N
1457021335.1,286046997.6,N
1457021336.0,286046997.6,N
1457021355.8,286046994.0,N
1457021375.6,286046992.9,N
1457021395.5,286046991.9,N
1457021415.3,286046993.6,N
1457021435.1,286046997.9,N
1457021455.9,286046999.3,N
1457021475.7,286046993.8,N
1457021495.5,286046996.1,N
1457021515.4,286046995.4,N
1457021535.2,286046994.4,N
1457021555.0,286046992.1,N
1457021555.9,286046992.1,Y
1457021575.8,286046995.2,P
1457021595.6,286046997.9,P
1457021615.4,286046998.6,N
1457021635.3,286046999.1,N
1457021655.1,286046995.6,Y
1457021656.0,286046995.6,P
1457021675.8,286046997.5,N
1457021695.7,286046998.0,N
1457021715.5,286046995.7,Y
1457021735.3,286046995.8,P
1457021755.2,286046993.3,P
1457021775.9,286046996.3,N
1457021795.7,286046995.4,Y
1457021815.6,286047001.0,P
1457021835.4,286046996.7,N
1457021855.2,286046996.2,N
1457021875.1,286046996.3,N
1457021876.0,286046996.3,N
1457021895.8,286046996.4,N
1457021915.6,286046991.9,Y
1457021935.5,286046995.5,P
1457021955.3,286046994.0,P
1457021975.1,286046995.0,P
1457021995.9,286046994.6,Y
1457022015.7,286046996.6,P
1457022035.5,286046998.8,N
1457022055.4,286046996.6,N
1457022075.2,286046998.0,N
1457022095.0,286046995.1,Y
1457022095.9,286046995.1,P
1457022115.8,286047002.8,N
1457022135.6,286047001.4,N
1457022155.4,286047001.6,N
1457022175.3,286047005.9,N
1457022195.1,286047006.4,N
1457022196.0,286047006.4,N
1457022215.8,286047006.1,N
1457022235.7,286047007.5,N
1457022255.5,286047005.7,N
1457022275.3,286047005.4,N
1457022295.1,286047003.8,N
1457022315.9,286047006.0,N
1457022335.7,286047006.5,N
1457022355.5,286047003.9,N
1457022375.4,286047002.0,N
1457022395.2,286047002.2,N
1457022415.0,286047004.0,N
1457022415.9,286047004.0,N
1457022435.8,286046999.9,N
1457022455.6,286047002.4,N
1457022475.4,286047002.7,N
1457022495.3,286047000.9,N
1457022515.1,286047000.6,N
1457022516.0,286047000.6,N
1457022535.8,286047001.9,N
1457022555.7,286047004.8,N
1457022575.5,286047002.9,N
1457022595.3,286047004.1,N
1457022615.2,286047002.3,N
1457022635.9,286047000.8,N
1457022655.7,286046998.1,N
1457022675.5,286047000.5,N
1457022695.4,286046996.9,N
1457022715.2,286047001.1,N
1457022735.0,286046999.0,N
1457022735.9,286046999.0,N
1457022755.8,286046997.0,N
1457022775.6,286046996.9,N
1457022795.4,286046999.1,N
1457022815.3,286046997.1,N
1457022835.1,286047001.0,N
1457022855.8,286047004.4,N
1457022875.7,286047000.2,N
1457022895.5,286047000.8,N
1457022915.3,286046998.2,N
1457022935.2,286046999.8,N
1457022955.9,286047000.6,N
1457022975.7,286047001.1,N
1457022995.6,286046998.5,N
1457023015.4,286046998.7,N
1457023035.2,286047002.2,N
1457023055.1,286047001.7,N
1457023056.0,286047001.7,N
1457023075.8,286047001.9,N
1457023095.6,286047002.2,N
1457023115.5,286047002.7,N
1457023135.3,286046999.8,N
1457023155.1,286046999.8,N
1457023175.9,286047002.3,N
1457023195.7,286047005.5,N
1457023215.5,286047004.4,N
1457023235.4,286046999.2,N
1457023255.2,286046998.6,N
1457023275.0,286046998.3,N
1457023275.9,286046998.3,N
1457023295.8,286046997.3,N
1457023315.6,286046992.3,Y
1457023335.4,286046992.4,P
1457023355.3,286046992.0,N
1457023375.1,286046990.9,N
1457023376.0,286046990.9,N
1457023395.8,286046992.2,N
1457023415.7,286046993.0,N
1457023435.5,286046994.5,N
1457023455.3,286046995.6,N
1457023475.1,286046996.0,N
1457023495.9,286046992.2,N
1457023515.7,286046991.8,Y
1457023535.5,286046997.4,P
1457023555.4,286046996.8,N
1457023575.2,286046999.2,N
1457023595.0,286047000.6,N
1457023595.9,286047000.6,N
1457023615.8,286046995.1,N
1457023635.6,286046994.5,N
1457023655.4,286046990.1,Y
1457023675.3,286046991.9,P
1457023695.1,286046991.2,P
1457023715.8,286046987.3,P
1457023735.7,286046990.0,N
1457023755.5,286046987.4,Y
1457023775.3,286046995.1,P
1457023795.2,286046996.4,N
1457023815.9,286046993.5,P
1457023835.7,286046995.0,N
1457023855.6,286046997.3,N
1457023875.4,286046996.5,N
1457023895.2,286046996.9,N
1457023915.1,286046999.6,N
1457023916.0,286046999.6,N
1457023935.8,286046998.9,N
1457023955.6,286046999.7,N
1457023975.4,286047002.4,N
1457023995.3,286047005.9,N
1457024015.1,286047009.1,N
1457024035.8,286047012.0,N
1457024055.7,286047014.5,N
1457024075.5,286047018.5,N
1457024095.3,286047021.9,N
1457024115.2,286047020.7,N
1457024135.9,286047022.5,N
1457024155.7,286047027.1,N
1457024175.6,286047033.2,Y
1457024195.4,286047025.3,P
1457024215.2,286047028.2,N
1457024235.1,286047025.3,N
1457024236.0,286047025.3,N
1457024255.8,286047028.4,Y
1457024275.6,286047005.8,P
1457024295.5,286047003.3,N
1457024315.3,286047001.5,N
1457024335.1,286047001.8,N
1457024355.9,286047004.0,N
1457024375.7,286047004.3,N
1457024395.5,286047005.9,N
